Dewpoint
37 36 37 39 39 40 40 40 40 44 44 43 43 43 43 44 44 43 42 44 43 44 43 43 44 42 41
35 35 35 36 37 37 38 38 38 39 40 40 41 40 40 40 40 42 41 41 41 42 42 40 38 37 36
35 35 35 34 34 35 35 36 37 38 38 38 39 39 41 40 40 40 40 40 38 38 36 35 34 34 34
34 34 34 34 34 33 32 34 33 31 31 32 33 32 33 33 33 32 31 32 33 33 32 32 31 32 32
32 31 31 30 29 28 28 25 25 25 24 24 24 24 24 25 26 26 26 26 26 27 28 29 30 31 32
28 25 25 24 24 24 24 22 21 24 23 21 23 20 20 20 22 25 25 26 26 27 29 31 31 32 32
24 24 23 24 24 25 24 23 21 23 23 19 21 18 19 20 24 26 28 29 29 30 31 31 31 31 31
25 25 25 26 25 25 25 24 22 22 23 19 20 19 21 22 25 27 28 29 29 30 31 31 31 30 31
24 24 24 24 24 26 24 22 18 16 19 20 19 20 21 21 21 27 27 28 29 30 30 31 30 30 31
16 14 15 17 23 22 23 19 18 17 18 21 20 20 21 19 20 21 21 22 25 27 29 29 29 29 28
12 14 18 20 21 22 21 21 20 20 19 23 23 21 21 21 20 21 21 21 21 22 23 25 26 26 26
14 16 18 20 21 22 22 23 22 22 23 23 22 21 21 20 19 20 20 21 22 23 24 25 25 26 28
17 19 20 21 22 22 23 22 22 23 23 24 22 22 21 20 20 20 21 21 22 23 24 24 24 24 23
19 20 20 21 21 21 21 20 20 19 22 24 23 22 21 21 21 20 21 21 21 22 22 23 23 23 24
19 19 19 19 19 20 20 19 18 18 17 18 20 21 21 21 19 19 19 19 21 22 22 22 23 23 23
18 18 18 19 19 18 19 18 17 16 15 16 17 17 18 19 22 20 20 20 21 22 23 22 22 23 23
16 16 16 15 16 16 16 16 15 14 15 16 17 17 15 15 17 22 21 21 21 21 21 22 22 23 22
Wind_Speed
2 4 3 5 6 7 8 9 9 15 14 13 13 9 8 8 4 5 9 10 10 12 11 12 10 10 11
1 4 3 4 5 5 6 6 8 13 14 12 9 9 9 10 11 9 10 11 13 12 8 10 13 15 14
1 2 2 3 3 3 4 4 6 9 9 8 7 7 7 7 8 9 11 5 6 9 11 12 13 13 13
1 1 1 2 2 4 4 4 6 5 4 5 7 6 4 4 4 4 5 6 9 12 13 13 14 15 14
1 1 2 3 4 3 2 4 2 5 6 5 5 4 5 6 7 9 10 12 13 14 15 15 14 14 15
1 1 2 2 2 3 3 4 3 3 6 9 7 9 8 7 9 11 12 12 13 13 14 14 15 16 13
1 1 1 2 1 2 2 2 4 5 6 8 3 7 4 6 7 9 10 12 13 15 15 16 15 14 13
3 2 1 1 2 1 2 3 6 3 1 4 3 7 7 7 7 7 9 13 15 15 14 14 14 15 13
4 4 4 4 3 3 4 4 5 1 1 2 3 8 6 3 2 2 4 6 6 8 12 11 11 12 14
4 3 4 3 3 1 1 3 2 3 1 3 4 6 6 2 4 7 6 5 7 9 10 10 9 10 12
2 1 2 3 3 3 1 2 2 4 1 2 2 5 4 7 9 9 9 7 8 9 12 15 16 15 14
1 1 2 2 2 3 2 2 5 9 9 2 4 5 7 10 11 4 9 12 12 10 8 9 12 15 17
1 1 2 3 4 4 3 4 7 9 10 8 10 10 9 11 13 13 12 7 13 13 9 9 10 10 13
2 3 3 2 3 3 5 8 10 8 3 6 8 7 10 14 15 19 15 11 9 13 13 14 14 14 15
4 5 5 5 5 5 7 9 8 11 12 8 8 11 14 17 17 18 20 19 16 16 13 16 15 15 16
5 5 7 7 8 9 8 8 12 13 14 11 9 9 8 11 23 20 14 16 14 13 13 15 19 15 17
6 7 8 8 9 9 9 10 13 13 14 11 10 8 13 17 10 20 17 15 16 17 15 17 21 22 17
Wind_Direction
52 20 13 0 15 23 24 14 11 33 46 53 62 39 25 19 355 291 272 274 282 284 288 282 290 284 275
352 10 23 6 357 10 14 14 357 360 357 3 353 326 304 283 278 275 276 279 275 277 284 279 276 272 272
51 2 15 15 354 350 351 348 342 346 349 355 327 320 316 289 274 266 260 256 268 264 262 267 278 279 277
79 46 13 3 37 8 358 353 351 2 354 333 319 337 330 323 303 317 307 280 276 273 271 269 267 264 265
58 28 29 25 21 358 340 339 355 1 338 335 326 309 285 281 281 278 276 271 265 263 261 259 258 259 255
41 17 39 25 14 14 8 358 334 48 344 304 305 292 288 281 282 278 273 263 254 249 247 246 245 244 256
97 56 34 13 21 1 9 319 297 322 321 301 316 304 298 293 294 276 266 258 251 244 242 244 246 249 253
70 61 292 245 247 265 305 300 298 299 278 283 331 306 311 306 307 285 271 263 254 247 245 243 250 252 253
15 350 337 326 292 220 276 298 320 308 15 293 328 314 305 297 271 260 316 320 324 267 255 252 250 258 263
352 2 5 8 43 242 241 273 287 298 119 319 322 347 320 271 274 298 301 305 295 265 267 264 266 268 267
348 20 50 62 60 47 98 189 222 256 319 319 284 309 270 301 303 301 299 290 301 273 273 266 266 266 270
358 13 1 348 336 326 311 274 255 258 280 256 264 242 277 290 284 292 297 292 284 280 279 277 274 268 257
290 303 292 302 303 302 283 301 297 268 256 239 243 262 251 255 272 286 308 295 286 278 266 262 268 261 263
273 283 273 228 286 302 293 318 314 301 277 250 246 235 262 259 263 274 276 273 272 277 280 280 272 261 256
273 284 292 290 288 290 288 306 285 294 294 285 272 258 254 256 268 260 268 270 266 277 278 280 271 263 261
267 275 280 283 287 286 281 281 289 291 293 298 297 302 287 269 227 257 265 264 274 274 271 276 280 272 262
267 273 278 278 281 277 276 277 282 284 286 289 284 276 282 280 284 227 253 269 280 279 270 264 267 276 277